Regional Weather Roundup
Issued by NWS

Home | Current Version | Previous Version | Text Only | Print | Product List | Glossary On
Versions: 1 2 3 4 5 6 7 8 9 10 11 12 13 14 15 16 17 18 19 20 21 22 23 24 25 26 27 28 29 30 31 32 33 34 35 36 37 38 39 40 41 42 43 44 45 46 47 48 49 50
000
ASUS43 KBIS 011720
RWRND

NORTH DAKOTA REGIONAL WEATHER ROUNDUP
NATIONAL WEATHER SERVICE BISMARCK ND
1200 PM CDT WED OCT 01 2014

NOTE: "FAIR" INDICATES FEW OR NO CLOUDS BELOW 12,000 FEET WITH NO
SIGNIFICANT WEATHER AND/OR OBSTRUCTIONS TO VISIBILITY.


NDZ001>003-009>011-017-011800-
NORTHWEST NORTH DAKOTA

CITY           SKY/WX    TMP DP  RH WIND       PRES   REMARKS
WILLISTON      CLOUDY    55  48  77 W16G26    29.71R
MINOT          CLOUDY    56  51  84 W24G30    29.60R
MINOT AFB      CLOUDY    55  55  99 NW20      29.59R
$$

NDZ018>021-031>035-040>046-011800-
SOUTHWEST NORTH DAKOTA

CITY           SKY/WX    TMP DP  RH WIND       PRES   REMARKS
BISMARCK       CLOUDY    58  50  75 W17G24    29.71R
DICKINSON      CLOUDY    53  47  79 W22       29.75R
GARRISON         N/A     56  51  84 W21G30    29.66R
HETTINGER ARPT CLOUDY    51  46  83 W18       29.81R
$$

NDZ004>008-012>016-024-026-027-054-011800-
NORTHEAST NORTH DAKOTA

CITY           SKY/WX    TMP DP  RH WIND       PRES   REMARKS
GRAND FORKS    CLOUDY    64  54  69 SW13G18   29.59R
GRND FRKS AFB  CLOUDY    65  56  73 SW14G24   29.59R
DEVILS LAKE    CLOUDY    61  50  67 W23       29.56R
$$

NDZ022-023-025-028>030-036>039-047>053-011800-
SOUTHEAST NORTH DAKOTA

CITY           SKY/WX    TMP DP  RH WIND       PRES   REMARKS
FARGO          MOSUNNY   68  54  60 SW14      29.64F
JAMESTOWN      PTSUNNY   62  51  67 W21G29    29.64S
$$



USA.gov is the U.S. government's official web portal to all federal, state and local government web resources and services.